Tracking 20721 objects as of 2-Jun-2020
HD Live streaming from Space Station
objects crossing your sky now

SL-8 DEB

Track SL-8 DEB now!
10-day predictions


NORAD ID: 16865
Int'l Code: 1986-052C
Perigee: 474.7 km
Apogee: 486.9 km
Inclination: 74.0 °
Period: 94.1 minutes
Semi major axis: 6851 km
RCS: 5.4539 m2 (large)
Launch date: July 16, 1986
Source: Commonwealth of Independent States (former USSR) (CIS)
Launch site: PLESETSK MISSILE AND SPACE COMPLEX (PKMTR)

Note: This is SATELLITE DEBRIS
aabbcc
Your satellite tracking list
Your tracking list is empty




NASA's NSSDC Master Catalog

Two Line Element Set (TLE):
1 16865U 86052C   20151.76289375 +.00004027 +00000-0 +13728-3 0  9990
2 16865 074.0017 050.9214 0008950 125.1190 235.0853 15.30718329819361
Source of the keplerian elements: AFSPC